DEPPU EDTQ-EDRY

Flight info

Callsign DEPPU
Flight time N/A
Altitude 3500
Route VFR
Aircraft AEST/L-S/S

Departure

Time N/A
Airport Pattonville Airfield (EDTQ)

Arrival

Time 2026-04-29 19:44
Airport Speyer Airfield (EDRY)
Time Latitude Longitude Altitude Speed Heading
2026-04-29 19:44 49.30319 8.45391 316 ft 0 kts 323°
2026-04-29 19:51 49.30320 8.45391 316 ft 1 kts 324°
2026-04-29 19:51 49.30330 8.45366 315 ft 3 kts 282°
2026-04-29 19:52 49.30333 8.45360 315 ft 0 kts 333°
2026-04-29 19:52 49.30332 8.45361 315 ft 0 kts 330°
2026-04-29 19:53 49.30328 8.45365 315 ft 0 kts 308°
2026-04-29 19:53 49.30327 8.45377 315 ft 2 kts 269°
2026-04-29 19:53 49.30327 8.45379 315 ft 0 kts 266°
2026-04-29 19:54 49.30226 8.45415 316 ft 25 kts 149°
2026-04-29 19:54 49.30062 8.45474 321 ft 17 kts 179°
2026-04-29 19:54 49.29919 8.45527 323 ft 28 kts 164°
2026-04-29 19:55 49.29787 8.45580 325 ft 12 kts 166°
2026-04-29 19:55 49.29669 8.45630 324 ft 22 kts 166°
2026-04-29 19:55 49.29598 8.45610 324 ft 0 kts 254°
2026-04-29 19:57 49.29595 8.45596 324 ft 7 kts 252°
2026-04-29 19:57 49.29603 8.45531 323 ft 0 kts 345°
2026-04-29 19:58 49.29669 8.45504 323 ft 41 kts 345°
2026-04-29 19:58 49.30243 8.45234 421 ft 119 kts 349°
2026-04-29 19:58 49.30967 8.45516 1128 ft 113 kts 66°
2026-04-29 19:58 49.31520 8.46293 1912 ft 122 kts 16°
2026-04-29 19:59 49.32400 8.46229 2677 ft 132 kts
2026-04-29 19:59 49.33292 8.45851 3430 ft 135 kts 358°
2026-04-29 19:59 49.34212 8.45537 4178 ft 136 kts 359°
2026-04-29 19:59 49.35158 8.45258 4890 ft 144 kts 359°
2026-04-29 20:00 49.36238 8.45004 5250 ft 169 kts 360°
2026-04-29 20:00 49.37468 8.44771 5415 ft 181 kts
2026-04-29 20:00 49.38707 8.44547 5482 ft 179 kts 360°
2026-04-29 20:00 49.39949 8.44319 5509 ft 180 kts 360°
2026-04-29 20:01 49.41197 8.44082 5527 ft 181 kts 359°
2026-04-29 20:01 49.42449 8.43845 5532 ft 182 kts 359°
2026-04-29 20:01 49.43704 8.43605 5520 ft 182 kts 359°
2026-04-29 20:01 49.44960 8.43379 5518 ft 181 kts 359°
2026-04-29 20:02 49.46213 8.43182 5530 ft 181 kts 359°
2026-04-29 20:02 49.47467 8.42994 5534 ft 181 kts 359°
2026-04-29 20:02 49.48719 8.42809 5542 ft 181 kts 359°
2026-04-29 20:02 49.49551 8.42686 5540 ft 181 kts 359°
2026-04-29 20:03 49.51213 8.42427 5544 ft 182 kts 356°
2026-04-29 20:03 49.52426 8.41809 5547 ft 185 kts 343°
2026-04-29 20:03 49.53624 8.41078 5549 ft 186 kts 342°
2026-04-29 20:03 49.54821 8.40323 5549 ft 186 kts 342°
2026-04-29 20:04 49.56017 8.39560 5541 ft 186 kts 341°
2026-04-29 20:04 49.57215 8.38790 5543 ft 186 kts 341°
2026-04-29 20:04 49.58413 8.38016 5553 ft 186 kts 341°
2026-04-29 20:04 49.59604 8.37239 5520 ft 185 kts 341°
2026-04-29 20:05 49.60655 8.36549 4989 ft 148 kts 342°
2026-04-29 20:05 49.61675 8.35856 4475 ft 182 kts 341°
2026-04-29 20:05 49.62854 8.35051 3979 ft 185 kts 342°
2026-04-29 20:05 49.63999 8.34246 3479 ft 178 kts 342°
2026-04-29 20:06 49.65120 8.33419 3006 ft 178 kts 342°
2026-04-29 20:06 49.66230 8.32588 2772 ft 181 kts 343°
2026-04-29 20:06 49.67355 8.31782 2652 ft 175 kts 346°
2026-04-29 20:06 49.68452 8.31026 2608 ft 170 kts 347°
2026-04-29 20:07 49.69522 8.30292 2581 ft 167 kts 347°
2026-04-29 20:07 49.70573 8.29567 2569 ft 164 kts 347°
2026-04-29 20:07 49.71608 8.28853 2563 ft 162 kts 347°
2026-04-29 20:07 49.72632 8.28145 2564 ft 161 kts 347°
2026-04-29 20:08 49.73652 8.27442 2557 ft 159 kts 347°
2026-04-29 20:08 49.74314 8.26985 2560 ft 157 kts 347°
2026-04-29 20:08 49.75627 8.26082 2554 ft 152 kts 347°
2026-04-29 20:08 49.76598 8.25417 2561 ft 153 kts 347°
2026-04-29 20:09 49.77585 8.24751 2563 ft 162 kts 347°
2026-04-29 20:09 49.78639 8.24046 2569 ft 168 kts 347°
2026-04-29 20:09 49.79720 8.23323 2579 ft 170 kts 347°
2026-04-29 20:09 49.80814 8.22589 2580 ft 171 kts 347°
2026-04-29 20:10 49.81911 8.21852 2579 ft 171 kts 347°
2026-04-29 20:10 49.83016 8.21117 2500 ft 175 kts 347°
2026-04-29 20:10 49.84142 8.20383 2371 ft 176 kts 347°
2026-04-29 20:10 49.85250 8.19658 2247 ft 171 kts 347°
2026-04-29 20:11 49.86325 8.18943 2131 ft 169 kts 347°
2026-04-29 20:11 49.87399 8.18219 1998 ft 167 kts 347°
2026-04-29 20:11 49.88465 8.17518 1876 ft 165 kts 347°
2026-04-29 20:11 49.89515 8.16856 1816 ft 161 kts 347°
2026-04-29 20:12 49.90544 8.16214 1791 ft 158 kts 347°
2026-04-29 20:12 49.91497 8.15540 1776 ft 145 kts 340°
2026-04-29 20:12 49.92362 8.14948 1810 ft 125 kts
2026-04-29 20:12 49.93207 8.14881 1804 ft 119 kts
2026-04-29 20:13 49.94021 8.14804 1792 ft 117 kts
2026-04-29 20:13 49.94525 8.14429 1790 ft 133 kts 325°
2026-04-29 20:13 49.94898 8.12508 1787 ft 145 kts 276°
2026-04-29 20:13 49.94988 8.10991 1789 ft 138 kts 295°
2026-04-29 20:14 49.95555 8.10077 1691 ft 105 kts 357°
2026-04-29 20:14 49.96071 8.10466 1459 ft 82 kts 65°
2026-04-29 20:14 49.96314 8.11294 1321 ft 94 kts 71°
2026-04-29 20:14 49.96491 8.12313 1096 ft 92 kts 78°
2026-04-29 20:15 49.96646 8.13233 917 ft 87 kts 75°
2026-04-29 20:15 49.96794 8.14100 789 ft 79 kts 71°
2026-04-29 20:15 49.96922 8.14809 762 ft 48 kts 74°
2026-04-29 20:15 49.97013 8.15344 793 ft 75 kts 74°
2026-04-29 20:16 49.97045 8.16374 1081 ft 122 kts 109°
2026-04-29 20:16 49.96362 8.17154 1803 ft 140 kts 156°
2026-04-29 20:16 49.95294 8.16947 1863 ft 173 kts 201°
2026-04-29 20:16 49.94554 8.15391 1730 ft 189 kts 249°
2026-04-29 20:17 49.94257 8.13431 1641 ft 185 kts 259°
2026-04-29 20:17 49.94092 8.11456 1536 ft 179 kts 276°
2026-04-29 20:17 49.94692 8.09992 1465 ft 164 kts 341°
2026-04-29 20:17 49.95679 8.10344 1386 ft 148 kts 42°
2026-04-29 20:18 49.96327 8.11609 1189 ft 150 kts 65°
2026-04-29 20:18 49.96620 8.13157 917 ft 138 kts 73°
2026-04-29 20:18 49.96825 8.14270 778 ft 82 kts 72°
2026-04-29 20:18 49.96911 8.14748 762 ft 60 kts 73°
2026-04-29 20:19 49.96979 8.15132 756 ft 10 kts 75°
2026-04-29 20:19 49.96980 8.15137 756 ft 0 kts 73°
2026-04-29 20:19 49.97001 8.15256 753 ft 53 kts 73°
2026-04-29 20:19 49.97108 8.16173 1068 ft 101 kts 96°
2026-04-29 20:20 49.96509 8.16731 1833 ft 141 kts 176°
2026-04-29 20:20 49.95637 8.15743 2426 ft 175 kts 221°
2026-04-29 20:20 49.94777 8.14327 3002 ft 176 kts 220°
2026-04-29 20:20 49.94141 8.12808 3093 ft 159 kts 255°
2026-04-29 20:21 49.94330 8.11300 2530 ft 133 kts 317°
2026-04-29 20:21 49.94985 8.10716 2109 ft 91 kts 16°
2026-04-29 20:21 49.95541 8.10981 1784 ft 81 kts 39°
2026-04-29 20:21 49.96044 8.11453 1481 ft 86 kts 41°
2026-04-29 20:22 49.96473 8.12116 1214 ft 90 kts 65°
2026-04-29 20:22 49.96629 8.13061 978 ft 95 kts 76°
2026-04-29 20:22 49.96786 8.14035 795 ft 90 kts 71°
2026-04-29 20:22 49.96927 8.14848 759 ft 62 kts 73°
2026-04-29 20:23 49.96992 8.15180 755 ft 5 kts 74°
2026-04-29 20:23 49.96987 8.15154 754 ft 12 kts 74°
2026-04-29 20:23 49.97021 8.15351 752 ft 16 kts 72°
2026-04-29 20:23 49.97069 8.15372 750 ft 12 kts 306°
2026-04-29 20:24 49.97065 8.15300 751 ft 1 kts 257°
2026-04-29 20:24 49.97065 8.15298 751 ft 0 kts 259°
2026-04-29 20:24 49.97065 8.15278 752 ft 7 kts 278°
2026-04-29 20:24 49.97115 8.15195 753 ft 14 kts 328°
2026-04-29 20:25 49.97119 8.15107 754 ft 7 kts 253°
2026-04-29 20:25 49.97093 8.14961 757 ft 20 kts 255°
2026-04-29 20:25 49.97091 8.14882 758 ft 2 kts 335°
2026-04-29 20:25 49.97116 8.14805 760 ft 10 kts 248°
2026-04-29 20:26 49.97102 8.14751 761 ft 0 kts 248°